Location: Detroit
(42.3310°N, 83.0460°W)
Time: 15:43:25
(UTC-05:00)

N. Korean satellite - Visible Passes

Search period start: 01 December 2021 00:00
Search period end: 11 December 2021 00:00
Orbit: 447 x 495 km, 97.3° (Epoch: 01 December)

Date Brightness Start Highest point End Pass type
(mag) Time Alt. Az. Time Alt. Az. Time Alt. Az.
01 Dec 6.3 06:00:34 10° N 06:03:57 66° WNW 06:07:16 10° SSW visible
01 Dec 10.1 18:10:26 10° WSW 18:11:38 11° W 18:12:51 10° WNW visible
02 Dec 7.4 05:32:10 10° NNE 05:35:27 47° E 05:38:42 10° S visible
02 Dec 8.5 07:07:46 10° WNW 07:08:12 10° WNW 07:08:37 10° WNW visible
02 Dec 9.2 17:39:58 10° SSW 17:42:57 25° W 17:45:55 10° NW visible
03 Dec 9.1 05:04:16 10° NE 05:06:50 20° E 05:09:22 10° SE visible
03 Dec 7.6 06:37:18 10° NNW 06:39:57 22° WNW 06:42:35 10° WSW visible
04 Dec 6.5 06:08:17 10° N 06:11:35 50° WNW 06:14:50 10° SSW visible
05 Dec 6.8 05:39:43 10° NNE 05:43:04 61° E 05:46:25 10° S visible
05 Dec 9.6 17:47:57 10° SW 17:50:37 20° W 17:53:16 10° NW visible
06 Dec 8.7 05:11:37 10° NE 05:14:27 24° E 05:17:16 10° SSE visible
06 Dec 7.9 06:45:08 10° NNW 06:47:28 18° WNW 06:49:48 10° WSW visible
07 Dec 9.9 04:44:47 10° ENE 04:45:42 11° E 04:46:37 10° ESE visible
07 Dec 6.8 06:15:54 10° N 06:19:05 39° WNW 06:22:16 10° SW visible
08 Dec 6.4 05:47:11 10° NNE 05:50:35 80° ESE 05:53:57 10° S visible
08 Dec 9.7 17:55:55 10° SW 17:58:10 16° W 18:00:24 10° NW visible
09 Dec 8.3 05:18:54 10° NNE 05:21:57 30° E 05:25:00 10° SSE visible
09 Dec 8.1 06:52:56 10° NNW 06:54:53 15° WNW 06:56:49 10° WSW visible
10 Dec 9.6 04:51:54 12° ENE 04:53:12 14° E 04:55:00 10° SE visible
10 Dec 7.1 06:26:03 30° NW 06:26:29 31° WNW 06:29:32 10° SW visible
